Regional Weather Roundup
Issued by NWS Columbia, SC

Home | Current Version | Previous Version | Text Only | Print | Product List | Glossary On
Versions: 1 2 3 4 5 6 7 8 9 10 11 12 13 14 15 16 17 18 19 20 21 22 23 24 25 26 27 28 29 30 31 32 33 34 35 36 37 38 39 40 41 42 43 44 45 46 47 48 49 50
000
ASUS42 KCAE 211310
RWRCAE
REGIONAL WEATHER ROUNDUP
NATIONAL WEATHER SERVICE COLUMBIA SC
900 AM EDT SUN OCT 21 2018

NOTE: "FAIR" INDICATES FEW OR NO CLOUDS BELOW 12,000 FEET WITH NO
SIGNIFICANT WEATHER AND/OR OBSTRUCTIONS TO VISIBILITY.

NOT ALL STATIONS ARE QUALITY CONTROLLED BY THE NATIONAL
WEATHER SERVICE. USE DATA WITH CAUTION...ESPECIALLY
DEWPOINT OBSERVATIONS.

SCZ001>056-GAZ040-063>065-077-211400-
...UPSTATE SOUTH CAROLINA...

CITY           SKY/WX    TMP DP  RH WIND       PRES   REMARKS
ANDERSON       FAIR      47  23  38 N12G18    30.23R
LIBERTY        FAIR      44  25  47 NE13G23   30.21R
SPARTANBURG      N/A    N/A N/A N/A MISG        N/A
CLEMSON        FAIR      45  27  49 NE10G18   30.23R
GREENVILLE     FAIR      44  26  49 N14       30.24R
GREENWOOD      FAIR      46  28  49 N10       30.24R
GREER          FAIR      43  26  51 N8        30.24R
ROCK HILL      FAIR      47  30  51 N14G21    30.23R
CHESTER        FAIR      45  27  49 N14G20    30.23R
LAURENS        FAIR      45  30  57 N8        30.22R


...CENTRAL SOUTH CAROLINA...

CITY           SKY/WX    TMP DP  RH WIND       PRES   REMARKS
COLUMBIA APT   FAIR      53  32  44 N13       30.19R
COLUMBIA OWENS FAIR      53  32  44 VRB3      30.20R
MCENTIRE ANGB  FAIR      52  27  37 N13G28    30.18R
ORANGEBURG     FAIR      54  33  45 N13G25    30.16R
SUMTER SHAW    FAIR      51  26  38 N17G25    30.17R
AIKEN          FAIR      48  32  53 N13G20    30.20R
BARNWELL       FAIR      52  39  62 N10G16    30.16R
MANNING        FAIR      48  32  53 N15G25    30.16R
CAMDEN         FAIR      50  25  37 N14G22    30.20R
LANCASTER        N/A     48  27  43 N7        30.21R
WINNSBORO      FAIR      48  30  49 N9G21     30.21R


...EASTERN AND COASTAL SOUTH CAROLINA...

CITY           SKY/WX    TMP DP  RH WIND       PRES   REMARKS
MYRTLE BEACH   FAIR      54  30  40 N26       30.14R
N MYRTLE BCH   FAIR      54  29  38 N16G30    30.12R
CONWAY         FAIR      52  32  46 N10G21    30.16R
MARION         FAIR      50  32  50 N10       30.16R
HARTSVILLE     FAIR      48  30  49 N6        30.19R
FLORENCE       FAIR      52  29  41 N23G31    30.17R
DARLINGTON     FAIR      50  29  44 N16G24    30.20R
CHARLESTON APT FAIR      59  41  51 N20G26    30.13R
WALTERBORO     FAIR      54  45  71 N6        30.15R
BEAUFORT       FAIR      59  48  67 N15G22    30.13


...EASTERN GEORGIA...

CITY           SKY/WX    TMP DP  RH WIND       PRES   REMARKS
AUGUSTA BUSH F FAIR      54  33  45 N14G22    30.17R
AUGUSTA DANIEL FAIR      52  31  44 N14G21    30.18R
THOMSON        FAIR      50  32  49 E13       30.24R
CLAXTON        FAIR      57  50  78 NW6       30.15R
SYLVANIA       FAIR      56  48  75 N10       30.16R
STATESBORO     FAIR      55  48  76 N10       30.15R
SAVANNAH       FAIR      58  49  72 N12       30.14R


...SOUTHERN NORTH CAROLINA...

CITY           SKY/WX    TMP DP  RH WIND       PRES   REMARKS
CHARLOTTE      FAIR      47  29  49 NW8G22    30.24R
MONROE         FAIR      46  26  45 NW15      30.22R
WADESBORO      FAIR      48  29  46 NW10      30.22R
ROCKINGHAM     FAIR      47  28  47 N8G16     30.21R
ASHEVILLE      FAIR      38  25  59 N21G28    30.24R WCI  28

$$



USA.gov is the U.S. government's official web portal to all federal, state and local government web resources and services.